,,PA_Meas_PMT16A,,PR_Meas_QMR101_102,,RH_Meas_QMH101,,SR_Meas_QMS101,,TA_Meas_QMH101,,GenWind,,GenWind,
time,status,PA,status,PR,status,RH,status,SR,status,TA,status,DirAvg,status,SpdAvg,
2014-10-21, 00:00:04,VALID,919.33,VALID,0,VALID,97.0766,VALID,0,VALID,19.9968,VALID,8,VALID,0,
2014-10-21, 00:01:04,VALID,919.325,VALID,0,VALID,97.069,VALID,0,VALID,19.9953,VALID,8,VALID,0,
2014-10-21, 00:02:04,VALID,919.316,VALID,0,VALID,97.0842,VALID,0,VALID,19.9953,VALID,8,VALID,0,
2014-10-21, 00:03:04,VALID,919.307,VALID,0,VALID,97.0766,VALID,0,VALID,20.0148,VALID,8,VALID,0,
2014-10-21, 00:04:04,VALID,919.293,VALID,0,VALID,97.0613,VALID,0,VALID,19.9968,VALID,8,VALID,0,
2014-10-21, 00:05:04,VALID,919.282,VALID,0,VALID,97.0537,VALID,0,VALID,19.9563,VALID,8,VALID,0,
2014-10-21, 00:06:04,VALID,919.307,VALID,0,VALID,97.0308,VALID,0,VALID,19.9368,VALID,8,VALID,0,
2014-10-21, 00:07:04,VALID,919.283,VALID,0,VALID,97.0232,VALID,0,VALID,19.9578,VALID,8,VALID,0,
2014-10-21, 00:08:04,VALID,919.274,VALID,0,VALID,97.0003,VALID,0,VALID,19.9368,VALID,8,VALID,0,
2014-10-21, 00:09:04,VALID,919.251,VALID,0,VALID,96.9851,VALID,0,VALID,19.9773,VALID,8,VALID,0,
2014-10-21, 00:10:04,VALID,919.225,VALID,0,VALID,97.0003,VALID,0,VALID,19.9968,VALID,8,VALID,0,
2014-10-21, 00:11:04,VALID,919.217,VALID,0,VALID,97.0003,VALID,0,VALID,19.9773,VALID,8,VALID,0,
2014-10-21, 00:12:04,VALID,919.18,VALID,0,VALID,96.9927,VALID,0,VALID,19.9563,VALID,8,VALID,0,
2014-10-21, 00:13:04,VALID,919.166,VALID,0,VALID,96.9851,VALID,0,VALID,19.9758,VALID,8,VALID,0,
2014-10-21, 00:14:04,VALID,919.158,VALID,0,VALID,96.9775,VALID,0,VALID,19.9758,VALID,8,VALID,0,
2014-10-21, 00:15:04,VALID,919.16,VALID,0,VALID,96.9927,VALID,0,VALID,19.9758,VALID,8,VALID,0,
2014-10-21, 00:16:04,VALID,919.113,VALID,0,VALID,97.0232,VALID,0,VALID,19.9968,VALID,8,VALID,0,
2014-10-21, 00:17:04,VALID,919.109,VALID,0,VALID,97.0156,VALID,0,VALID,19.9563,VALID,8,VALID,0,
2014-10-21, 00:18:04,VALID,919.08,VALID,0,VALID,97.0156,VALID,0,VALID,19.9563,VALID,8,VALID,0,
2014-10-21, 00:19:04,VALID,919.071,VALID,0,VALID,97.0308,VALID,0,VALID,19.9383,VALID,8,VALID,0,
2014-10-21, 00:20:04,VALID,919.063,VALID,0,VALID,97.0308,VALID,0,VALID,19.9383,VALID,8,VALID,0,
2014-10-21, 00:21:04,VALID,919.069,VALID,0,VALID,97.0156,VALID,0,VALID,19.8978,VALID,8,VALID,0,
2014-10-21, 00:22:04,VALID,919.058,VALID,0,VALID,97.0308,VALID,0,VALID,19.8978,VALID,358,VALID,0,
2014-10-21, 00:23:04,VALID,919.064,VALID,0,VALID,97.008,VALID,0,VALID,19.8783,VALID,282,VALID,0,
2014-10-21, 00:24:04,VALID,919.074,VALID,0,VALID,97.0232,VALID,0,VALID,19.8993,VALID,282,VALID,0,
2014-10-21, 00:25:04,VALID,919.071,VALID,0,VALID,97.0308,VALID,0,VALID,19.8588,VALID,282,VALID,0,
2014-10-21, 00:26:04,VALID,919.062,VALID,0,VALID,97.0537,VALID,0,VALID,19.8588,VALID,282,VALID,0,
2014-10-21, 00:27:04,VALID,919.055,VALID,0,VALID,97.0461,VALID,0,VALID,19.8993,VALID,282,VALID,0,
2014-10-21, 00:28:04,VALID,919.072,VALID,0,VALID,97.0613,VALID,0,VALID,19.8978,VALID,282,VALID,0,
2014-10-21, 00:29:04,VALID,919.034,VALID,0,VALID,97.0842,VALID,0,VALID,19.9188,VALID,282,VALID,0,
2014-10-21, 00:30:04,VALID,919.047,VALID,0,VALID,97.0766,VALID,0,VALID,19.8978,VALID,315,VALID,0,
2014-10-21, 00:31:04,VALID,919.034,VALID,0,VALID,97.0766,VALID,0,VALID,19.8978,VALID,329,VALID,0,
2014-10-21, 00:32:04,VALID,919.014,VALID,0,VALID,97.0918,VALID,0,VALID,19.8783,VALID,329,VALID,0,
2014-10-21, 00:33:04,VALID,919.032,VALID,0,VALID,97.1071,VALID,0,VALID,19.8783,VALID,329,VALID,0,
2014-10-21, 00:34:04,VALID,919.013,VALID,0,VALID,97.0994,VALID,0,VALID,19.8783,VALID,329,VALID,0,
2014-10-21, 00:35:04,VALID,919.013,VALID,0,VALID,97.1147,VALID,0,VALID,19.8783,VALID,329,VALID,0,
2014-10-21, 00:36:04,VALID,918.974,VALID,0,VALID,97.0994,VALID,0,VALID,19.8993,VALID,329,VALID,0,
2014-10-21, 00:37:04,VALID,918.935,VALID,0,VALID,97.1147,VALID,0,VALID,19.8588,VALID,329,VALID,0,
2014-10-21, 00:38:04,VALID,918.943,VALID,0,VALID,97.1071,VALID,0,VALID,19.8198,VALID,329,VALID,0,
2014-10-21, 00:39:04,VALID,918.906,VALID,0,VALID,97.1223,VALID,0,VALID,19.8213,VALID,329,VALID,0,
2014-10-21, 00:40:04,VALID,918.928,VALID,0,VALID,97.1223,VALID,0,VALID,19.7613,VALID,329,VALID,0,
2014-10-21, 00:41:04,VALID,918.872,VALID,0,VALID,97.1071,VALID,0,VALID,19.7223,VALID,329,VALID,0,
2014-10-21, 00:42:04,VALID,918.882,VALID,0,VALID,97.1223,VALID,0,VALID,19.7043,VALID,329,VALID,0,
2014-10-21, 00:43:04,VALID,918.856,VALID,0,VALID,97.1376,VALID,0,VALID,19.6833,VALID,329,VALID,0,
2014-10-21, 00:44:04,VALID,918.831,VALID,0,VALID,97.1376,VALID,0,VALID,19.6848,VALID,329,VALID,0,
2014-10-21, 00:45:04,VALID,918.837,VALID,0,VALID,97.1452,VALID,0,VALID,19.6638,VALID,329,VALID,0,
2014-10-21, 00:46:04,VALID,918.772,VALID,0,VALID,97.1604,VALID,0,VALID,19.6848,VALID,329,VALID,0,
2014-10-21, 00:47:04,VALID,918.808,VALID,0,VALID,97.1833,VALID,0,VALID,19.7043,VALID,329,VALID,0,
2014-10-21, 00:48:04,VALID,918.753,VALID,0,VALID,97.1681,VALID,0,VALID,19.7043,VALID,329,VALID,0,
2014-10-21, 00:49:04,VALID,918.719,VALID,0,VALID,97.2214,VALID,0,VALID,19.7043,VALID,329,VALID,0,
2014-10-21, 00:50:04,VALID,918.694,VALID,0,VALID,97.1986,VALID,0,VALID,19.7028,VALID,329,VALID,0,
2014-10-21, 00:51:04,VALID,918.686,VALID,0,VALID,97.1986,VALID,0,VALID,19.7238,VALID,329,VALID,0,
2014-10-21, 00:52:04,VALID,918.673,VALID,0,VALID,97.2519,VALID,0,VALID,19.7043,VALID,329,VALID,0,
2014-10-21, 00:53:04,VALID,918.602,VALID,0,VALID,97.2443,VALID,0,VALID,19.6833,VALID,329,VALID,0,
2014-10-21, 00:54:04,VALID,918.606,VALID,0,VALID,97.2367,VALID,0,VALID,19.6833,VALID,328,VALID,0,
2014-10-21, 00:55:04,VALID,918.537,VALID,0,VALID,97.2519,VALID,0,VALID,19.6833,VALID,329,VALID,0,
2014-10-21, 00:56:04,VALID,918.572,VALID,0,VALID,97.2672,VALID,0,VALID,19.7043,VALID,328,VALID,0,
2014-10-21, 00:57:04,VALID,918.528,VALID,0,VALID,97.2748,VALID,0,VALID,19.7043,VALID,329,VALID,0,
2014-10-21, 00:58:04,VALID,918.534,VALID,0,VALID,97.2824,VALID,0,VALID,19.7028,VALID,328,VALID,0,
2014-10-21, 00:59:04,VALID,918.538,VALID,0,VALID,97.2977,VALID,0,VALID,19.7043,VALID,329,VALID,0,
2014-10-21, 01:00:04,VALID,918.514,VALID,0,VALID,97.2977,VALID,0,VALID,19.7043,VALID,329,VALID,0,
2014-10-21, 01:01:04,VALID,918.52,VALID,0,VALID,97.3129,VALID,0,VALID,19.6848,VALID,329,VALID,0,
2014-10-21, 01:02:04,VALID,918.554,VALID,0,VALID,97.3205,VALID,0,VALID,19.7043,VALID,329,VALID,0,
2014-10-21, 01:03:04,VALID,918.486,VALID,0,VALID,97.3129,VALID,0,VALID,19.6638,VALID,329,VALID,0,
2014-10-21, 01:04:04,VALID,918.483,VALID,0,VALID,97.3358,VALID,0,VALID,19.6848,VALID,329,VALID,0,
2014-10-21, 01:05:04,VALID,918.467,VALID,0,VALID,97.3205,VALID,0,VALID,19.6848,VALID,328,VALID,0,
2014-10-21, 01:06:04,VALID,918.464,VALID,0,VALID,97.3205,VALID,0,VALID,19.6638,VALID,269,VALID,0,
2014-10-21, 01:07:04,VALID,918.438,VALID,0,VALID,97.3358,VALID,0,VALID,19.6638,VALID,269,VALID,0,
2014-10-21, 01:08:04,VALID,918.441,VALID,0,VALID,97.351,VALID,0,VALID,19.6443,VALID,269,VALID,0,
2014-10-21, 01:09:04,VALID,918.424,VALID,0,VALID,97.3586,VALID,0,VALID,19.6653,VALID,269,VALID,0,
2014-10-21, 01:10:04,VALID,918.415,VALID,0,VALID,97.351,VALID,0,VALID,19.6653,VALID,269,VALID,0,
2014-10-21, 01:11:04,VALID,918.412,VALID,0,VALID,97.351,VALID,0,VALID,19.6653,VALID,269,VALID,0,
2014-10-21, 01:12:04,VALID,918.456,VALID,0,VALID,97.3815,VALID,0,VALID,19.6653,VALID,269,VALID,0,
2014-10-21, 01:13:04,VALID,918.439,VALID,0,VALID,97.3663,VALID,0,VALID,19.6443,VALID,269,VALID,0,
2014-10-21, 01:14:04,VALID,918.432,VALID,0,VALID,97.3739,VALID,0,VALID,19.6443,VALID,269,VALID,0,
2014-10-21, 01:15:04,VALID,918.401,VALID,0,VALID,97.3663,VALID,0,VALID,19.6443,VALID,269,VALID,0,
2014-10-21, 01:16:04,VALID,918.374,VALID,0,VALID,97.3891,VALID,0,VALID,19.6653,VALID,269,VALID,0,
2014-10-21, 01:17:05,VALID,918.37,VALID,0,VALID,97.3815,VALID,0,VALID,19.6443,VALID,269,VALID,0,
2014-10-21, 01:18:05,VALID,918.361,VALID,0,VALID,97.4044,VALID,0,VALID,19.6638,VALID,269,VALID,0,
2014-10-21, 01:19:05,VALID,918.368,VALID,0,VALID,97.3891,VALID,0,VALID,19.6638,VALID,269,VALID,0,
2014-10-21, 01:20:05,VALID,918.369,VALID,0,VALID,97.412,VALID,0,VALID,19.6833,VALID,269,VALID,0,
2014-10-21, 01:21:05,VALID,918.345,VALID,0,VALID,97.4273,VALID,0,VALID,19.6638,VALID,269,VALID,0,
2014-10-21, 01:22:05,VALID,918.362,VALID,0,VALID,97.412,VALID,0,VALID,19.6653,VALID,269,VALID,0,
2014-10-21, 01:23:05,VALID,918.348,VALID,0,VALID,97.412,VALID,0,VALID,19.6638,VALID,269,VALID,0,
2014-10-21, 01:24:05,VALID,918.332,VALID,0,VALID,97.4196,VALID,0.107441,VALID,19.6638,VALID,269,VALID,0,
2014-10-21, 01:25:05,VALID,918.391,VALID,0,VALID,97.4273,VALID,0,VALID,19.6443,VALID,269,VALID,0,
2014-10-21, 01:26:05,VALID,918.385,VALID,0,VALID,97.4273,VALID,0,VALID,19.6848,VALID,269,VALID,0,
2014-10-21, 01:27:05,VALID,918.397,VALID,0,VALID,97.4577,VALID,0,VALID,19.6653,VALID,269,VALID,0,
2014-10-21, 01:28:05,VALID,918.405,VALID,0,VALID,97.4501,VALID,0,VALID,19.6653,VALID,269,VALID,0,
2014-10-21, 01:29:05,VALID,918.406,VALID,0,VALID,97.4654,VALID,0,VALID,19.6848,VALID,269,VALID,0,
2014-10-21, 01:30:05,VALID,918.397,VALID,0,VALID,97.4349,VALID,0,VALID,19.6848,VALID,270,VALID,0,
2014-10-21, 01:31:05,VALID,918.377,VALID,0,VALID,97.4425,VALID,0,VALID,19.6653,VALID,269,VALID,0,
2014-10-21, 01:32:05,VALID,918.385,VALID,0,VALID,97.4654,VALID,0,VALID,19.6248,VALID,269,VALID,0,
2014-10-21, 01:33:05,VALID,918.411,VALID,0,VALID,97.4577,VALID,0,VALID,19.6248,VALID,269,VALID,0,
2014-10-21, 01:34:05,VALID,918.422,VALID,0,VALID,97.4577,VALID,0,VALID,19.6248,VALID,269,VALID,0,
2014-10-21, 01:35:05,VALID,918.424,VALID,0,VALID,97.4806,VALID,0,VALID,19.6458,VALID,269,VALID,0,
2014-10-21, 01:36:05,VALID,918.435,VALID,0,VALID,97.4806,VALID,0,VALID,19.6458,VALID,270,VALID,0,
2014-10-21, 01:37:05,VALID,918.433,VALID,0,VALID,97.4654,VALID,0,VALID,19.6443,VALID,269,VALID,0,
2014-10-21, 01:38:05,VALID,918.451,VALID,0,VALID,97.4806,VALID,0,VALID,19.6248,VALID,269,VALID,0,
2014-10-21, 01:39:05,VALID,918.452,VALID,0,VALID,97.5035,VALID,0,VALID,19.6653,VALID,270,VALID,0,
2014-10-21, 01:40:05,VALID,918.432,VALID,0,VALID,97.4654,VALID,0,VALID,19.6638,VALID,269,VALID,0,
2014-10-21, 01:41:05,VALID,918.407,VALID,0,VALID,97.4806,VALID,0,VALID,19.7028,VALID,269,VALID,0,
2014-10-21, 01:42:05,VALID,918.382,VALID,0,VALID,97.4882,VALID,0,VALID,19.7223,VALID,269,VALID,0,
2014-10-21, 01:43:05,VALID,918.4,VALID,0,VALID,97.4806,VALID,0,VALID,19.7223,VALID,270,VALID,0,
2014-10-21, 01:44:05,VALID,918.4,VALID,0,VALID,97.4882,VALID,0,VALID,19.7823,VALID,269,VALID,0,
2014-10-21, 01:45:05,VALID,918.399,VALID,0,VALID,97.4882,VALID,0,VALID,19.7613,VALID,269,VALID,0,
2014-10-21, 01:46:05,VALID,918.417,VALID,0,VALID,97.4959,VALID,0,VALID,19.7823,VALID,269,VALID,0,
2014-10-21, 01:47:05,VALID,918.425,VALID,0,VALID,97.4882,VALID,0,VALID,19.7823,VALID,269,VALID,0,
2014-10-21, 01:48:05,VALID,918.408,VALID,0,VALID,97.4959,VALID,0,VALID,19.7823,VALID,269,VALID,0,
2014-10-21, 01:49:05,VALID,918.415,VALID,0,VALID,97.5187,VALID,0,VALID,19.7418,VALID,269,VALID,0,
2014-10-21, 01:50:05,VALID,918.43,VALID,0,VALID,97.5187,VALID,0,VALID,19.7223,VALID,269,VALID,0,
2014-10-21, 01:51:05,VALID,918.401,VALID,0,VALID,97.5111,VALID,0,VALID,19.7223,VALID,269,VALID,0,
2014-10-21, 01:52:05,VALID,918.41,VALID,0,VALID,97.5111,VALID,0,VALID,19.7223,VALID,269,VALID,0,
2014-10-21, 01:53:05,VALID,918.391,VALID,0,VALID,97.5264,VALID,0,VALID,19.7433,VALID,270,VALID,0,
2014-10-21, 01:54:05,VALID,918.391,VALID,0,VALID,97.5264,VALID,0,VALID,19.7628,VALID,269,VALID,0,
2014-10-21, 01:55:05,VALID,918.383,VALID,0,VALID,97.5187,VALID,0,VALID,19.7418,VALID,269,VALID,0,
2014-10-21, 01:56:05,VALID,918.4,VALID,0,VALID,97.5035,VALID,0,VALID,19.7433,VALID,269,VALID,0,
2014-10-21, 01:57:05,VALID,918.402,VALID,0,VALID,97.534,VALID,0,VALID,19.7418,VALID,269,VALID,0,
2014-10-21, 01:58:05,VALID,918.377,VALID,0,VALID,97.5416,VALID,0,VALID,19.7628,VALID,270,VALID,0,
2014-10-21, 01:59:05,VALID,918.367,VALID,0,VALID,97.534,VALID,0,VALID,19.7628,VALID,269,VALID,0,
2014-10-21, 02:00:05,VALID,918.362,VALID,0,VALID,97.5492,VALID,0,VALID,19.7613,VALID,269,VALID,0,
2014-10-21, 02:01:05,VALID,918.347,VALID,0,VALID,97.5111,VALID,0,VALID,19.7823,VALID,270,VALID,0,
2014-10-21, 02:02:05,VALID,918.32,VALID,0,VALID,97.5264,VALID,0,VALID,19.7808,VALID,269,VALID,0,
2014-10-21, 02:03:05,VALID,918.308,VALID,0,VALID,97.5264,VALID,0,VALID,19.8003,VALID,269,VALID,0,
2014-10-21, 02:04:05,VALID,918.288,VALID,0,VALID,97.534,VALID,0,VALID,19.7808,VALID,269,VALID,0,
2014-10-21, 02:05:05,VALID,918.285,VALID,0,VALID,97.5416,VALID,0,VALID,19.7613,VALID,270,VALID,0,
2014-10-21, 02:06:05,VALID,918.257,VALID,0,VALID,97.534,VALID,0,VALID,19.7808,VALID,269,VALID,0,
2014-10-21, 02:07:05,VALID,918.276,VALID,0,VALID,97.534,VALID,0,VALID,19.7613,VALID,269,VALID,0,
2014-10-21, 02:08:05,VALID,918.256,VALID,0,VALID,97.5264,VALID,0,VALID,19.7808,VALID,269,VALID,0,
2014-10-21, 02:09:05,VALID,918.276,VALID,0,VALID,97.5721,VALID,0,VALID,19.7613,VALID,270,VALID,0,
2014-10-21, 02:10:05,VALID,918.284,VALID,0,VALID,97.5492,VALID,0,VALID,19.7613,VALID,269,VALID,0,
2014-10-21, 02:11:05,VALID,918.268,VALID,0,VALID,97.5721,VALID,0,VALID,19.7613,VALID,269,VALID,0,
2014-10-21, 02:12:05,VALID,918.261,VALID,0,VALID,97.5492,VALID,0,VALID,19.7613,VALID,269,VALID,0,
2014-10-21, 02:13:05,VALID,918.253,VALID,0,VALID,97.5569,VALID,0,VALID,19.7418,VALID,269,VALID,0,
2014-10-21, 02:14:05,VALID,918.247,VALID,0,VALID,97.5721,VALID,0,VALID,19.7613,VALID,270,VALID,0,
2014-10-21, 02:15:05,VALID,918.22,VALID,0,VALID,97.5645,VALID,0,VALID,19.7613,VALID,270,VALID,0,
2014-10-21, 02:16:05,VALID,918.186,VALID,0,VALID,97.5721,VALID,0,VALID,19.7418,VALID,269,VALID,0,
2014-10-21, 02:17:05,VALID,918.209,VALID,0,VALID,97.5797,VALID,0,VALID,19.7223,VALID,269,VALID,0,
2014-10-21, 02:18:05,VALID,918.201,VALID,0,VALID,97.5721,VALID,0,VALID,19.7028,VALID,269,VALID,0,
2014-10-21, 02:19:05,VALID,918.168,VALID,0,VALID,97.5721,VALID,0,VALID,19.7028,VALID,269,VALID,0,
2014-10-21, 02:20:05,VALID,918.153,VALID,0,VALID,97.5797,VALID,0,VALID,19.6833,VALID,269,VALID,0,
2014-10-21, 02:21:05,VALID,918.165,VALID,0,VALID,97.5873,VALID,0,VALID,19.6833,VALID,269,VALID,0,
2014-10-21, 02:22:05,VALID,918.132,VALID,0,VALID,97.6026,VALID,0,VALID,19.6638,VALID,269,VALID,0,
2014-10-21, 02:23:05,VALID,918.061,VALID,0,VALID,97.595,VALID,0,VALID,19.6848,VALID,269,VALID,0,
2014-10-21, 02:24:05,VALID,918.067,VALID,0,VALID,97.5873,VALID,0,VALID,19.6638,VALID,269,VALID,0,
2014-10-21, 02:25:05,VALID,918.07,VALID,0,VALID,97.5873,VALID,0,VALID,19.6443,VALID,269,VALID,0,
2014-10-21, 02:26:05,VALID,918.015,VALID,0,VALID,97.595,VALID,0,VALID,19.6248,VALID,269,VALID,0,
2014-10-21, 02:27:05,VALID,918.025,VALID,0,VALID,97.6178,VALID,0,VALID,19.6053,VALID,269,VALID,0,
2014-10-21, 02:28:05,VALID,917.958,VALID,0,VALID,97.6026,VALID,0,VALID,19.6053,VALID,269,VALID,0,
2014-10-21, 02:29:05,VALID,917.97,VALID,0,VALID,97.6178,VALID,0,VALID,19.6263,VALID,269,VALID,0,
2014-10-21, 02:30:05,VALID,917.959,VALID,0,VALID,97.6178,VALID,0,VALID,19.6068,VALID,269,VALID,0,
2014-10-21, 02:31:05,VALID,917.924,VALID,0,VALID,97.6178,VALID,0,VALID,19.6263,VALID,269,VALID,0,
2014-10-21, 02:32:05,VALID,917.892,VALID,0,VALID,97.6102,VALID,0,VALID,19.5858,VALID,269,VALID,0,
2014-10-21, 02:33:05,VALID,917.896,VALID,0,VALID,97.6102,VALID,0,VALID,19.5663,VALID,269,VALID,0,
2014-10-21, 02:34:05,VALID,917.866,VALID,0,VALID,97.6102,VALID,0,VALID,19.6068,VALID,269,VALID,0,
2014-10-21, 02:35:05,VALID,917.859,VALID,0,VALID,97.6026,VALID,0,VALID,19.5873,VALID,269,VALID,0,
2014-10-21, 02:36:05,VALID,917.87,VALID,0,VALID,97.6026,VALID,0,VALID,19.6068,VALID,269,VALID,0,
2014-10-21, 02:37:05,VALID,917.887,VALID,0,VALID,97.6331,VALID,0,VALID,19.5858,VALID,269,VALID,0,
2014-10-21, 02:38:05,VALID,917.871,VALID,0,VALID,97.6255,VALID,0,VALID,19.5858,VALID,269,VALID,0,
2014-10-21, 02:39:05,VALID,917.878,VALID,0,VALID,97.6102,VALID,0,VALID,19.5858,VALID,269,VALID,0,
2014-10-21, 02:40:05,VALID,917.871,VALID,0,VALID,97.6102,VALID,0,VALID,19.6053,VALID,269,VALID,0,
2014-10-21, 02:41:05,VALID,917.844,VALID,0,VALID,97.6178,VALID,0,VALID,19.6263,VALID,269,VALID,0,
2014-10-21, 02:42:05,VALID,917.82,VALID,0,VALID,97.6102,VALID,0,VALID,19.6053,VALID,269,VALID,0,
2014-10-21, 02:43:05,VALID,917.82,VALID,0,VALID,97.6255,VALID,0,VALID,19.6263,VALID,269,VALID,0,
2014-10-21, 02:44:05,VALID,917.802,VALID,0,VALID,97.6331,VALID,0,VALID,19.6053,VALID,269,VALID,0,
2014-10-21, 02:45:05,VALID,917.791,VALID,0,VALID,97.6255,VALID,0,VALID,19.6053,VALID,269,VALID,0,
2014-10-21, 02:46:05,VALID,917.791,VALID,0,VALID,97.6331,VALID,0,VALID,19.6053,VALID,269,VALID,0,
2014-10-21, 02:47:05,VALID,917.789,VALID,0,VALID,97.6102,VALID,0,VALID,19.6053,VALID,269,VALID,0,
2014-10-21, 02:48:05,VALID,917.786,VALID,0,VALID,97.6178,VALID,0,VALID,19.6248,VALID,269,VALID,0,
2014-10-21, 02:49:05,VALID,917.819,VALID,0,VALID,97.6331,VALID,0,VALID,19.6053,VALID,269,VALID,0,
2014-10-21, 02:50:05,VALID,917.813,VALID,0,VALID,97.6331,VALID,0,VALID,19.6248,VALID,269,VALID,0,
2014-10-21, 02:51:05,VALID,917.817,VALID,0,VALID,97.6255,VALID,0,VALID,19.6053,VALID,269,VALID,0,
2014-10-21, 02:52:05,VALID,917.817,VALID,0,VALID,97.6255,VALID,0,VALID,19.6248,VALID,269,VALID,0,
2014-10-21, 02:53:05,VALID,917.849,VALID,0,VALID,97.6407,VALID,0,VALID,19.6263,VALID,269,VALID,0,
2014-10-21, 02:54:05,VALID,917.841,VALID,0,VALID,97.6178,VALID,0,VALID,19.6248,VALID,269,VALID,0,
2014-10-21, 02:55:05,VALID,917.849,VALID,0,VALID,97.6255,VALID,0,VALID,19.6248,VALID,269,VALID,0,
2014-10-21, 02:56:05,VALID,917.868,VALID,0,VALID,97.6255,VALID,0,VALID,19.6248,VALID,269,VALID,0,
2014-10-21, 02:57:05,VALID,917.9,VALID,0,VALID,97.6102,VALID,0,VALID,19.6458,VALID,269,VALID,0,
2014-10-21, 02:58:05,VALID,917.872,VALID,0,VALID,97.6407,VALID,0,VALID,19.6443,VALID,269,VALID,0,
2014-10-21, 02:59:05,VALID,917.855,VALID,0,VALID,97.6331,VALID,0,VALID,19.6458,VALID,173,VALID,0,
2014-10-21, 03:00:05,VALID,917.864,VALID,0,VALID,97.6255,VALID,0,VALID,19.6443,VALID,173,VALID,0,
2014-10-21, 03:01:05,VALID,917.857,VALID,0,VALID,97.6255,VALID,0,VALID,19.6443,VALID,173,VALID,0,
2014-10-21, 03:02:05,VALID,917.842,VALID,0,VALID,97.6255,VALID,0,VALID,19.6638,VALID,173,VALID,0,
2014-10-21, 03:03:05,VALID,917.84,VALID,0,VALID,97.6178,VALID,0,VALID,19.6653,VALID,173,VALID,0,
2014-10-21, 03:04:05,VALID,917.861,VALID,0,VALID,97.6331,VALID,0,VALID,19.6653,VALID,173,VALID,0,
2014-10-21, 03:05:05,VALID,917.848,VALID,0,VALID,97.6407,VALID,0,VALID,19.6248,VALID,156,VALID,0,
2014-10-21, 03:06:05,VALID,917.815,VALID,0,VALID,97.6331,VALID,0,VALID,19.6443,VALID,158,VALID,0,
2014-10-21, 03:07:05,VALID,917.808,VALID,0,VALID,97.6331,VALID,0,VALID,19.6653,VALID,155,VALID,0,
2014-10-21, 03:08:05,VALID,917.781,VALID,0,VALID,97.6407,VALID,0,VALID,19.6458,VALID,155,VALID,0,
2014-10-21, 03:09:05,VALID,917.76,VALID,0,VALID,97.6407,VALID,0,VALID,19.6263,VALID,155,VALID,0,
2014-10-21, 03:10:05,VALID,917.778,VALID,0,VALID,97.6483,VALID,0,VALID,19.6053,VALID,155,VALID,0,
2014-10-21, 03:11:05,VALID,917.792,VALID,0,VALID,97.6636,VALID,0,VALID,19.6263,VALID,155,VALID,0,
2014-10-21, 03:12:05,VALID,917.767,VALID,0,VALID,97.6483,VALID,0,VALID,19.5858,VALID,155,VALID,0,
2014-10-21, 03:13:05,VALID,917.748,VALID,0,VALID,97.6636,VALID,0,VALID,19.5873,VALID,155,VALID,0,
2014-10-21, 03:14:05,VALID,917.733,VALID,0,VALID,97.6865,VALID,0,VALID,19.5873,VALID,155,VALID,0,
2014-10-21, 03:15:05,VALID,917.708,VALID,0,VALID,97.6788,VALID,0,VALID,19.5678,VALID,155,VALID,0,
2014-10-21, 03:16:05,VALID,917.707,VALID,0,VALID,97.6636,VALID,0,VALID,19.5678,VALID,156,VALID,0,
2014-10-21, 03:17:05,VALID,917.704,VALID,0,VALID,97.6712,VALID,0,VALID,19.5678,VALID,169,VALID,0,
2014-10-21, 03:18:05,VALID,917.667,VALID,0,VALID,97.656,VALID,0,VALID,19.5678,VALID,168,VALID,0,
2014-10-21, 03:19:05,VALID,917.64,VALID,0,VALID,97.6788,VALID,0,VALID,19.5273,VALID,157,VALID,0,
2014-10-21, 03:20:05,VALID,917.631,VALID,0,VALID,97.6712,VALID,0,VALID,19.5288,VALID,155,VALID,0,
2014-10-21, 03:21:05,VALID,917.609,VALID,0,VALID,97.6712,VALID,0,VALID,19.5273,VALID,153,VALID,0,
2014-10-21, 03:22:05,VALID,917.62,VALID,0,VALID,97.656,VALID,0,VALID,19.4883,VALID,153,VALID,0,
2014-10-21, 03:23:05,VALID,917.598,VALID,0,VALID,97.6865,VALID,0,VALID,19.4883,VALID,144,VALID,0,
2014-10-21, 03:24:05,VALID,917.601,VALID,0,VALID,97.6712,VALID,0,VALID,19.4883,VALID,144,VALID,0,
2014-10-21, 03:25:05,VALID,917.598,VALID,0,VALID,97.6788,VALID,0,VALID,19.4883,VALID,144,VALID,0,
2014-10-21, 03:26:05,VALID,917.558,VALID,0,VALID,97.6865,VALID,0,VALID,19.4688,VALID,144,VALID,0,
2014-10-21, 03:27:05,VALID,917.553,VALID,0,VALID,97.6941,VALID,0,VALID,19.4688,VALID,144,VALID,0,
2014-10-21, 03:28:05,VALID,917.564,VALID,0,VALID,97.6788,VALID,0,VALID,19.4508,VALID,144,VALID,0,
2014-10-21, 03:29:05,VALID,917.561,VALID,0,VALID,97.6865,VALID,0,VALID,19.4298,VALID,144,VALID,0,
2014-10-21, 03:30:05,VALID,917.59,VALID,0,VALID,97.6865,VALID,0,VALID,19.4493,VALID,138,VALID,0,
2014-10-21, 03:31:05,VALID,917.586,VALID,0,VALID,97.6865,VALID,0,VALID,19.4703,VALID,139,VALID,0,
2014-10-21, 03:32:05,VALID,917.603,VALID,0,VALID,97.6941,VALID,0,VALID,19.4703,VALID,136,VALID,0,
2014-10-21, 03:33:05,VALID,917.596,VALID,0,VALID,97.6941,VALID,0,VALID,19.4298,VALID,138,VALID,0,
2014-10-21, 03:34:05,VALID,917.597,VALID,0,VALID,97.6865,VALID,0,VALID,19.4508,VALID,128,VALID,0,
2014-10-21, 03:35:05,VALID,917.574,VALID,0,VALID,97.6941,VALID,0,VALID,19.4508,VALID,129,VALID,0,
2014-10-21, 03:36:05,VALID,917.589,VALID,0,VALID,97.6941,VALID,0,VALID,19.4103,VALID,138,VALID,0,
2014-10-21, 03:37:05,VALID,917.571,VALID,0,VALID,97.7017,VALID,0,VALID,19.4103,VALID,147,VALID,0,
2014-10-21, 03:38:05,VALID,917.593,VALID,0,VALID,97.6865,VALID,0,VALID,19.4508,VALID,132,VALID,0,
2014-10-21, 03:39:05,VALID,917.601,VALID,0,VALID,97.7017,VALID,0,VALID,19.4508,VALID,137,VALID,0,
2014-10-21, 03:40:05,VALID,917.602,VALID,0,VALID,97.6941,VALID,0,VALID,19.4508,VALID,134,VALID,0,
2014-10-21, 03:41:05,VALID,917.589,VALID,0,VALID,97.7017,VALID,0,VALID,19.4298,VALID,138,VALID,0,
2014-10-21, 03:42:05,VALID,917.626,VALID,0,VALID,97.6941,VALID,0,VALID,19.4508,VALID,131,VALID,0,
2014-10-21, 03:43:05,VALID,917.627,VALID,0,VALID,97.7093,VALID,0,VALID,19.4703,VALID,125,VALID,0,
2014-10-21, 03:44:05,VALID,917.607,VALID,0,VALID,97.7017,VALID,0,VALID,19.4508,VALID,130,VALID,0,
2014-10-21, 03:45:05,VALID,917.607,VALID,0,VALID,97.6788,VALID,0,VALID,19.4898,VALID,123,VALID,0,
2014-10-21, 03:46:05,VALID,917.585,VALID,0,VALID,97.6788,VALID,0,VALID,19.4688,VALID,120,VALID,0,
2014-10-21, 03:47:05,VALID,917.596,VALID,0,VALID,97.6941,VALID,0,VALID,19.4508,VALID,115,VALID,0,
2014-10-21, 03:48:05,VALID,917.591,VALID,0,VALID,97.7017,VALID,0,VALID,19.4508,VALID,115,VALID,0,
2014-10-21, 03:49:05,VALID,917.572,VALID,0,VALID,97.7017,VALID,0,VALID,19.4508,VALID,115,VALID,0,
2014-10-21, 03:50:05,VALID,917.589,VALID,0,VALID,97.6941,VALID,0,VALID,19.4508,VALID,115,VALID,0,
2014-10-21, 03:51:05,VALID,917.598,VALID,0,VALID,97.6941,VALID,0,VALID,19.4298,VALID,115,VALID,0,
2014-10-21, 03:52:05,VALID,917.582,VALID,0,VALID,97.7093,VALID,0,VALID,19.4313,VALID,114,VALID,0,
2014-10-21, 03:53:05,VALID,917.596,VALID,0,VALID,97.7017,VALID,0,VALID,19.4313,VALID,115,VALID,0,
2014-10-21, 03:54:05,VALID,917.602,VALID,0,VALID,97.6865,VALID,0,VALID,19.4313,VALID,115,VALID,0,
2014-10-21, 03:55:05,VALID,917.599,VALID,0,VALID,97.7169,VALID,0,VALID,19.4313,VALID,115,VALID,0,
2014-10-21, 03:56:05,VALID,917.612,VALID,0,VALID,97.7093,VALID,0,VALID,19.4313,VALID,116,VALID,0,
2014-10-21, 03:57:05,VALID,917.63,VALID,0,VALID,97.7246,VALID,0,VALID,19.4118,VALID,115,VALID,0,
2014-10-21, 03:58:05,VALID,917.643,VALID,0,VALID,97.7017,VALID,0,VALID,19.3908,VALID,116,VALID,0,
2014-10-21, 03:59:05,VALID,917.641,VALID,0,VALID,97.7246,VALID,0,VALID,19.3728,VALID,116,VALID,0,
2014-10-21, 04:00:04,VALID,917.647,VALID,0,VALID,97.7093,VALID,0,VALID,19.3728,VALID,116,VALID,0,